Date String (YYYY-MM-DD hh:mm:ss) UTC,Instrument flags,Ambient pressure (hPa),Sample flow (lpm),Bypass flow (lpm),Sample temperature (°C),Ambient temperature (°C),ASC tube jacket temperature (°C),LED temperature (°C),Box temperature (°C),Sample RH (%),Span deviation,Mass concentration (μg/m³),Mass concentration (μg/m³),Mass concentration (μg/m³)
DateTimeUTC,F1_M11,P_M11,Q1_M11,Q2_M11,T1_M11,T2_M11,T3_M11,T4_M11,T5_M11,U1_M11,ZSPAN_M11,X0_M11,X2_M11,X1_M11
2022-02-17 02:00:00,,0823.2,5.00,0.00,22.5,21.9,00.0,31.5,24.2,13.2,0000.0,0002.39,0002.02,0001.92
2022-02-17 02:01:00,,0823.3,4.99,0.00,22.5,21.8,00.0,31.5,24.1,13.2,0000.0,0002.52,0002.09,0001.96
2022-02-17 02:02:00,,0823.3,4.99,0.00,22.4,21.8,00.0,31.5,24.1,13.2,0000.0,0002.75,0002.17,0002.02
2022-02-17 02:03:00,,0823.3,5.02,0.00,22.4,21.7,00.0,31.5,24.1,13.2,0000.0,0003.00,0002.25,0002.08
2022-02-17 02:04:00,,0823.4,4.99,0.00,22.4,21.6,00.0,31.5,24.0,13.2,0000.0,0003.06,0002.31,0002.13
2022-02-17 02:05:00,,0823.3,5.01,0.00,22.4,21.5,00.0,31.4,24.0,13.3,0000.0,0003.21,0002.40,0002.19
2022-02-17 02:06:00,,0823.4,5.00,0.00,22.3,21.5,00.0,31.4,24.0,13.3,0000.0,0003.28,0002.46,0002.24
2022-02-17 02:07:00,,0823.4,4.99,0.00,22.3,21.5,00.0,31.4,23.9,13.3,0000.0,0003.33,0002.52,0002.31
2022-02-17 02:08:00,,0823.5,4.99,0.00,22.3,22.0,00.0,31.4,24.1,13.3,0000.0,0003.47,0002.62,0002.39
2022-02-17 02:09:00,,0823.6,5.01,0.00,22.5,22.8,00.0,31.5,24.3,13.2,0000.0,0003.42,0002.68,0002.44
2022-02-17 02:10:00,,0823.7,4.99,0.00,22.6,23.4,00.0,31.5,24.6,13.1,0000.0,0003.43,0002.72,0002.49
2022-02-17 02:11:00,,0823.6,5.01,0.00,22.7,23.2,00.0,31.5,24.6,13.0,0000.0,0003.49,0002.77,0002.56
2022-02-17 02:12:00,,0823.7,5.00,0.00,22.7,22.8,00.0,31.5,24.5,12.9,0000.0,0003.50,0002.81,0002.62
2022-02-17 02:13:00,,0823.7,5.00,0.00,22.6,22.6,00.0,31.5,24.4,12.9,0000.0,0003.45,0002.87,0002.67
2022-02-17 02:14:00,,0823.7,5.00,0.00,22.6,22.3,00.0,31.5,24.3,12.9,0000.0,0003.34,0002.90,0002.71
2022-02-17 02:15:00,,0823.7,5.00,0.00,22.5,22.1,00.0,31.5,24.2,12.9,0000.0,0003.38,0002.94,0002.76
2022-02-17 02:16:00,,0823.6,5.01,0.00,22.5,22.0,00.0,31.5,24.1,12.9,0000.0,0003.38,0002.97,0002.80
2022-02-17 02:17:00,,0823.7,5.00,0.00,22.4,21.8,00.0,31.5,24.1,12.9,0000.0,0003.42,0003.02,0002.85
2022-02-17 02:18:00,,0823.7,5.00,0.00,22.4,21.7,00.0,31.5,24.0,12.9,0000.0,0003.49,0003.08,0002.89
2022-02-17 02:19:00,,0823.8,5.00,0.00,22.3,21.6,00.0,31.4,23.9,12.9,0000.0,0003.53,0003.13,0002.94
2022-02-17 02:20:00,,0823.9,4.99,0.00,22.3,21.5,00.0,31.4,23.9,13.0,0000.0,0003.55,0003.15,0002.99
2022-02-17 02:21:00,,0823.9,5.01,0.00,22.3,21.7,00.0,31.4,23.9,13.0,0000.0,0003.61,0003.17,0003.03
2022-02-17 02:22:00,,0823.9,5.00,0.00,22.4,22.5,00.0,31.4,24.2,12.9,0000.0,0003.57,0003.18,0003.07
2022-02-17 02:23:00,,0823.9,4.99,0.00,22.5,23.3,00.0,31.5,24.5,12.8,0000.0,0003.61,0003.20,0003.09
2022-02-17 02:24:00,,0824.0,5.00,0.00,22.6,23.3,00.0,31.5,24.6,12.7,0000.0,0003.64,0003.22,0003.12
2022-02-17 02:25:00,,0824.0,5.00,0.00,22.7,23.0,00.0,31.5,24.5,12.7,0000.0,0003.64,0003.23,0003.14
2022-02-17 02:26:00,,0824.0,5.01,0.00,22.7,22.6,00.0,31.5,24.5,12.7,0000.0,0003.64,0003.23,0003.14
2022-02-17 02:27:00,,0824.0,5.00,0.00,22.6,22.3,00.0,31.5,24.4,12.7,0000.0,0003.59,0003.23,0003.14
2022-02-17 02:28:00,,0824.0,4.99,0.00,22.6,22.1,00.0,31.5,24.3,12.7,0000.0,0003.54,0003.21,0003.13
2022-02-17 02:29:00,,0824.0,5.01,0.00,22.6,21.9,00.0,31.5,24.3,12.6,0000.0,0003.46,0003.16,0003.07
2022-02-17 02:30:00,,0824.0,4.98,0.00,22.5,21.7,00.0,31.5,24.2,12.6,0000.0,0003.32,0003.07,0002.97
2022-02-17 02:31:00,,0824.1,5.01,0.00,22.5,21.6,00.0,31.5,24.2,12.5,0000.0,0003.21,0002.96,0002.86
2022-02-17 02:32:00,,0824.0,4.99,0.00,22.5,21.5,00.0,31.5,24.1,12.5,0000.0,0003.10,0002.85,0002.76
2022-02-17 02:33:00,,0824.1,5.02,0.00,22.4,21.4,00.0,31.5,24.1,12.5,0000.0,0002.99,0002.74,0002.65
2022-02-17 02:34:00,,0824.1,4.98,0.00,22.4,21.4,00.0,31.4,24.0,12.5,0000.0,0002.84,0002.61,0002.54
2022-02-17 02:35:00,,0824.2,4.99,0.00,22.4,21.8,00.0,31.4,24.1,12.4,0000.0,0002.70,0002.49,0002.43
2022-02-17 02:36:00,,0824.3,5.00,0.00,22.5,22.7,00.0,31.5,24.3,12.3,0000.0,0002.58,0002.37,0002.32
2022-02-17 02:37:00,,0824.2,4.99,0.00,22.7,23.3,00.0,31.5,24.6,12.2,0000.0,0002.46,0002.26,0002.20
2022-02-17 02:38:00,,0824.2,5.00,0.00,22.7,23.2,00.0,31.5,24.6,12.1,0000.0,0002.53,0002.17,0002.10
2022-02-17 02:39:00,,0824.3,5.01,0.00,22.7,22.8,00.0,31.5,24.6,12.0,0000.0,0002.53,0002.10,0002.01
2022-02-17 02:40:00,,0824.2,5.01,0.00,22.7,22.5,00.0,31.5,24.5,12.0,0000.0,0002.48,0002.05,0001.95
2022-02-17 02:41:00,,0824.3,4.99,0.00,22.6,22.3,00.0,31.5,24.4,12.0,0000.0,0002.53,0002.03,0001.92
2022-02-17 02:42:00,,0824.3,5.00,0.00,22.6,22.1,00.0,31.5,24.3,12.0,0000.0,0002.60,0002.01,0001.88
2022-02-17 02:43:00,,0824.3,5.01,0.00,22.6,21.9,00.0,31.5,24.2,12.0,0000.0,0002.63,0001.99,0001.84
2022-02-17 02:44:00,,0824.3,4.99,0.00,22.5,21.8,00.0,31.5,24.1,12.1,0000.0,0002.63,0001.98,0001.81
2022-02-17 02:45:00,,0824.4,5.00,0.00,22.5,21.6,00.0,31.5,24.1,12.1,0000.0,0002.60,0001.95,0001.77
2022-02-17 02:46:00,,0824.4,5.01,0.00,22.4,21.6,00.0,31.5,24.0,12.1,0000.0,0002.57,0001.90,0001.73
2022-02-17 02:47:00,,0824.4,5.00,0.00,22.5,22.2,00.0,31.5,24.2,12.1,0000.0,0002.91,0001.87,0001.70
2022-02-17 02:48:00,,0824.5,4.99,0.00,22.6,23.0,00.0,31.5,24.4,12.0,0000.0,0003.29,0001.84,0001.66
2022-02-17 02:49:00,,0824.5,5.01,0.00,22.7,23.1,00.0,31.6,24.6,11.9,0000.0,0003.22,0001.83,0001.63
2022-02-17 02:50:00,,0824.5,5.00,0.00,22.7,22.8,00.0,31.6,24.5,11.9,0000.0,0003.16,0001.81,0001.61
2022-02-17 02:51:00,,0824.5,5.00,0.00,22.7,22.5,00.0,31.6,24.4,11.9,0000.0,0003.11,0001.78,0001.59
2022-02-17 02:52:00,,0824.6,4.99,0.00,22.6,22.3,00.0,31.6,24.4,11.9,0000.0,0003.00,0001.74,0001.58
2022-02-17 02:53:00,,0824.6,5.02,0.00,22.6,22.0,00.0,31.6,24.3,11.9,0000.0,0002.95,0001.74,0001.57
2022-02-17 02:54:00,,0824.7,4.99,0.00,22.6,21.9,00.0,31.5,24.2,11.9,0000.0,0002.94,0001.73,0001.57
2022-02-17 02:55:00,,0824.6,4.99,0.00,22.5,21.8,00.0,31.5,24.2,12.0,0000.0,0002.93,0001.72,0001.56
2022-02-17 02:56:00,,0824.8,5.01,0.00,22.5,21.7,00.0,31.5,24.1,12.0,0000.0,0002.94,0001.71,0001.55
2022-02-17 02:57:00,,0824.7,5.00,0.00,22.4,21.6,00.0,31.5,24.1,12.0,0000.0,0002.94,0001.72,0001.54
2022-02-17 02:58:00,,0824.8,4.99,0.00,22.4,21.5,00.0,31.5,24.0,12.0,0000.0,0002.63,0001.71,0001.52
2022-02-17 02:59:00,,0824.8,5.01,0.00,22.4,21.6,00.0,31.5,24.0,12.0,0000.0,0002.13,0001.71,0001.52
